DAL143 KSAN-KLAS

Flight info

Callsign DAL143
Flight time 0h 54m
Altitude 29000
Route PADRZ2 CHKNN SEBBY YELAH MISEN RNDRZ3
Aircraft B752/M-SDE3FGHIM3RWXY/LB1

Departure

Time 2026-05-06 16:24
Airport San Diego International Airport (KSAN)

Arrival

Time 2026-05-06 17:18
Airport Harry Reid International Airport (KLAS)
Time Latitude Longitude Altitude Speed Heading
2026-05-06 15:57 32.73337 -117.20344 22 ft 0 kts 265°
2026-05-06 16:11 32.73337 -117.20338 22 ft 2 kts 265°
2026-05-06 16:11 32.73339 -117.20320 22 ft 2 kts 265°
2026-05-06 16:11 32.73340 -117.20303 22 ft 2 kts 265°
2026-05-06 16:12 32.73341 -117.20284 22 ft 2 kts 280°
2026-05-06 16:12 32.73334 -117.20269 22 ft 2 kts 316°
2026-05-06 16:12 32.73326 -117.20262 22 ft 0 kts 341°
2026-05-06 16:12 32.73319 -117.20260 22 ft 0 kts 343°
2026-05-06 16:15 32.73338 -117.20267 22 ft 5 kts 343°
2026-05-06 16:15 32.73384 -117.20277 22 ft 7 kts
2026-05-06 16:15 32.73439 -117.20263 22 ft 8 kts 15°
2026-05-06 16:15 32.73489 -117.20247 22 ft 7 kts 16°
2026-05-06 16:16 32.73542 -117.20213 23 ft 11 kts 64°
2026-05-06 16:16 32.73524 -117.20084 23 ft 18 kts 106°
2026-05-06 16:16 32.73487 -117.19932 23 ft 19 kts 105°
2026-05-06 16:16 32.73449 -117.19775 24 ft 19 kts 107°
2026-05-06 16:17 32.73413 -117.19634 24 ft 15 kts 107°
2026-05-06 16:17 32.73389 -117.19537 25 ft 12 kts 105°
2026-05-06 16:17 32.73365 -117.19436 25 ft 13 kts 105°
2026-05-06 16:17 32.73339 -117.19321 25 ft 17 kts 105°
2026-05-06 16:18 32.73298 -117.19152 25 ft 23 kts 106°
2026-05-06 16:18 32.73252 -117.18967 25 ft 23 kts 106°
2026-05-06 16:18 32.73206 -117.18778 25 ft 23 kts 105°
2026-05-06 16:18 32.73162 -117.18588 25 ft 24 kts 106°
2026-05-06 16:19 32.73115 -117.18398 25 ft 21 kts 106°
2026-05-06 16:19 32.73077 -117.18240 25 ft 17 kts 106°
2026-05-06 16:19 32.73045 -117.18113 26 ft 14 kts 106°
2026-05-06 16:19 32.73017 -117.17998 26 ft 14 kts 107°
2026-05-06 16:20 32.72987 -117.17878 26 ft 15 kts 105°
2026-05-06 16:20 32.72959 -117.17754 27 ft 13 kts 105°
2026-05-06 16:20 32.72951 -117.17693 27 ft 7 kts 82°
2026-05-06 16:20 32.72953 -117.17684 27 ft 0 kts 75°
2026-05-06 16:21 32.72953 -117.17680 27 ft 2 kts 75°
2026-05-06 16:21 32.72966 -117.17645 27 ft 6 kts 56°
2026-05-06 16:22 32.73008 -117.17615 27 ft 7 kts 14°
2026-05-06 16:22 32.73030 -117.17619 27 ft 2 kts 310°
2026-05-06 16:22 32.73033 -117.17630 27 ft 0 kts 286°
2026-05-06 16:23 32.73046 -117.17683 27 ft 22 kts 285°
2026-05-06 16:23 32.73152 -117.18124 26 ft 88 kts 286°
2026-05-06 16:23 32.73381 -117.19070 26 ft 148 kts 286°
2026-05-06 16:23 32.73693 -117.20355 408 ft 170 kts 287°
2026-05-06 16:24 32.74187 -117.21603 1265 ft 167 kts 303°
2026-05-06 16:24 32.74852 -117.22807 1631 ft 183 kts 306°
2026-05-06 16:24 32.75553 -117.24039 2031 ft 197 kts 305°
2026-05-06 16:24 32.76177 -117.25144 2361 ft 210 kts 305°
2026-05-06 16:25 32.77016 -117.26631 3057 ft 224 kts 305°
2026-05-06 16:25 32.77914 -117.28226 3961 ft 241 kts 306°
2026-05-06 16:25 32.78878 -117.29937 4848 ft 261 kts 306°
2026-05-06 16:25 32.79905 -117.31738 6015 ft 270 kts 309°
2026-05-06 16:26 32.81052 -117.33521 7302 ft 275 kts 311°
2026-05-06 16:26 32.82214 -117.35319 8512 ft 283 kts 312°
2026-05-06 16:26 32.83410 -117.37172 9723 ft 290 kts 313°
2026-05-06 16:26 32.84635 -117.39066 10838 ft 300 kts 313°
2026-05-06 16:27 32.85962 -117.41116 11638 ft 323 kts 312°
2026-05-06 16:27 32.87403 -117.43341 12044 ft 359 kts 312°
2026-05-06 16:27 32.88969 -117.45775 12958 ft 378 kts 311°
2026-05-06 16:27 32.90562 -117.48257 14257 ft 386 kts 312°
2026-05-06 16:28 32.92184 -117.50784 15556 ft 389 kts 312°
2026-05-06 16:28 32.93856 -117.53387 16419 ft 397 kts 312°
2026-05-06 16:28 32.95525 -117.55988 17237 ft 403 kts 312°
2026-05-06 16:28 32.97225 -117.58639 18156 ft 406 kts 312°
2026-05-06 16:29 32.98970 -117.61362 18892 ft 413 kts 312°
2026-05-06 16:29 33.00695 -117.64061 19872 ft 414 kts 313°
2026-05-06 16:29 33.02467 -117.66825 20601 ft 422 kts 312°
2026-05-06 16:29 33.04239 -117.69598 21535 ft 423 kts 313°
2026-05-06 16:30 33.06102 -117.72367 22171 ft 427 kts 318°
2026-05-06 16:30 33.07523 -117.74004 22686 ft 424 kts 324°
2026-05-06 16:30 33.10499 -117.77061 23581 ft 432 kts 324°
2026-05-06 16:30 33.12776 -117.79398 24410 ft 433 kts 325°
2026-05-06 16:31 33.15073 -117.81753 25267 ft 433 kts 324°
2026-05-06 16:31 33.17346 -117.84077 26081 ft 433 kts 325°
2026-05-06 16:31 33.19629 -117.86401 26945 ft 430 kts 326°
2026-05-06 16:31 33.21921 -117.88642 27754 ft 427 kts 327°
2026-05-06 16:32 33.24228 -117.90889 28472 ft 426 kts 327°
2026-05-06 16:32 33.26513 -117.93120 28974 ft 424 kts 327°
2026-05-06 16:32 33.31088 -117.97588 28958 ft 423 kts 327°
2026-05-06 16:33 33.35665 -118.02065 28960 ft 423 kts 327°
2026-05-06 16:34 33.42499 -118.08760 28956 ft 421 kts 327°
2026-05-06 16:34 33.47049 -118.13226 28959 ft 423 kts 327°
2026-05-06 16:35 33.51595 -118.17693 28963 ft 422 kts 327°
2026-05-06 16:35 33.56144 -118.22147 28963 ft 423 kts 329°
2026-05-06 16:36 33.61222 -118.25521 28967 ft 411 kts 341°
2026-05-06 16:36 33.66472 -118.28168 28969 ft 406 kts 350°
2026-05-06 16:36 33.69257 -118.28754 28969 ft 398 kts
2026-05-06 16:37 33.72004 -118.28693 28972 ft 391 kts 11°
2026-05-06 16:37 33.77117 -118.26720 28969 ft 387 kts 31°
2026-05-06 16:38 33.81300 -118.22666 28967 ft 389 kts 45°
2026-05-06 16:38 33.84893 -118.17732 28961 ft 387 kts 50°
2026-05-06 16:39 33.88198 -118.12613 28965 ft 388 kts 51°
2026-05-06 16:39 33.91408 -118.07383 28962 ft 388 kts 52°
2026-05-06 16:40 33.94571 -118.02112 28965 ft 388 kts 52°
2026-05-06 16:40 33.97713 -117.96823 28966 ft 388 kts 53°
2026-05-06 16:41 34.00851 -117.91515 28967 ft 389 kts 53°
2026-05-06 16:41 34.03999 -117.86175 28963 ft 388 kts 52°
2026-05-06 16:42 34.07151 -117.80817 28963 ft 388 kts 53°
2026-05-06 16:42 34.10377 -117.75596 28983 ft 387 kts 49°
2026-05-06 16:43 34.13830 -117.70608 29001 ft 388 kts 49°
2026-05-06 16:43 34.17295 -117.65557 28998 ft 387 kts 49°
2026-05-06 16:44 34.20713 -117.60558 28998 ft 385 kts 49°
2026-05-06 16:44 34.24159 -117.55508 28998 ft 387 kts 49°
2026-05-06 16:45 34.27585 -117.50481 28996 ft 390 kts 49°
2026-05-06 16:45 34.29334 -117.47913 28999 ft 408 kts 49°
2026-05-06 16:45 34.31217 -117.45148 29000 ft 431 kts 49°
2026-05-06 16:46 34.35052 -117.39501 28997 ft 436 kts 49°
2026-05-06 16:46 34.38919 -117.33800 29001 ft 437 kts 50°
2026-05-06 16:47 34.42762 -117.28125 29001 ft 434 kts 50°
2026-05-06 16:47 34.46579 -117.22477 28996 ft 437 kts 50°
2026-05-06 16:48 34.50432 -117.16769 28991 ft 437 kts 50°
2026-05-06 16:48 34.54285 -117.11050 28986 ft 435 kts 50°
2026-05-06 16:49 34.58102 -117.05376 28981 ft 436 kts 50°
2026-05-06 16:49 34.61923 -116.99686 28982 ft 436 kts 50°
2026-05-06 16:50 34.65750 -116.93980 28982 ft 436 kts 50°
2026-05-06 16:50 34.69603 -116.88223 28974 ft 436 kts 50°
2026-05-06 16:51 34.73407 -116.82533 28984 ft 435 kts 50°
2026-05-06 16:51 34.77236 -116.76794 28991 ft 435 kts 50°
2026-05-06 16:52 34.81054 -116.71062 28989 ft 436 kts 50°
2026-05-06 16:52 34.84889 -116.65301 28974 ft 436 kts 49°
2026-05-06 16:53 34.89106 -116.60029 28970 ft 436 kts 37°
2026-05-06 16:53 34.94078 -116.55708 28960 ft 436 kts 37°
2026-05-06 16:54 34.98904 -116.51255 28956 ft 434 kts 37°
2026-05-06 16:54 35.03685 -116.46711 28946 ft 437 kts 38°
2026-05-06 16:55 35.08453 -116.42113 28942 ft 436 kts 38°
2026-05-06 16:55 35.12843 -116.36962 28788 ft 440 kts 45°
2026-05-06 16:55 35.14983 -116.34231 28214 ft 446 kts 45°
2026-05-06 16:56 35.17119 -116.31487 27450 ft 447 kts 46°
2026-05-06 16:56 35.19252 -116.28738 26759 ft 444 kts 46°
2026-05-06 16:56 35.21362 -116.26015 26696 ft 436 kts 45°
2026-05-06 16:56 35.23440 -116.23286 26627 ft 446 kts 47°
2026-05-06 16:57 35.25525 -116.20434 26079 ft 436 kts 47°
2026-05-06 16:57 35.27466 -116.17769 25374 ft 406 kts 47°
2026-05-06 16:57 35.29292 -116.15264 25055 ft 389 kts 47°
2026-05-06 16:57 35.31087 -116.12801 24595 ft 389 kts 47°
2026-05-06 16:58 35.32896 -116.10317 24207 ft 391 kts 47°
2026-05-06 16:58 35.34716 -116.07819 23772 ft 390 kts 47°
2026-05-06 16:58 35.36489 -116.05382 23340 ft 388 kts 47°
2026-05-06 16:58 35.38291 -116.02902 22918 ft 385 kts 46°
2026-05-06 16:59 35.40076 -116.00446 22505 ft 382 kts 46°
2026-05-06 16:59 35.41839 -115.98020 22108 ft 379 kts 47°
2026-05-06 16:59 35.43579 -115.95621 21724 ft 378 kts 46°
2026-05-06 16:59 35.45321 -115.93219 21324 ft 376 kts 47°
2026-05-06 17:00 35.47047 -115.90836 20924 ft 374 kts 47°
2026-05-06 17:00 35.48773 -115.88452 20525 ft 373 kts 47°
2026-05-06 17:00 35.50498 -115.86069 20127 ft 370 kts 47°
2026-05-06 17:00 35.52168 -115.83758 19721 ft 354 kts 47°
2026-05-06 17:01 35.53722 -115.81602 19726 ft 313 kts 47°
2026-05-06 17:01 35.55109 -115.79679 19802 ft 297 kts 46°
2026-05-06 17:01 35.56489 -115.77770 19758 ft 306 kts 46°
2026-05-06 17:01 35.57914 -115.75796 19755 ft 307 kts 46°
2026-05-06 17:02 35.59332 -115.73837 19753 ft 304 kts 46°
2026-05-06 17:02 35.60767 -115.71901 19433 ft 311 kts 45°
2026-05-06 17:02 35.62218 -115.69946 19062 ft 310 kts 46°
2026-05-06 17:02 35.63662 -115.67997 18687 ft 305 kts 46°
2026-05-06 17:03 35.65071 -115.66092 18358 ft 300 kts 46°
2026-05-06 17:03 35.66468 -115.64202 18000 ft 295 kts 45°
2026-05-06 17:03 35.67833 -115.62357 17653 ft 292 kts 45°
2026-05-06 17:03 35.69191 -115.60521 17330 ft 291 kts 46°
2026-05-06 17:04 35.70555 -115.58674 17003 ft 294 kts 46°
2026-05-06 17:04 35.71930 -115.56812 16667 ft 296 kts 45°
2026-05-06 17:04 35.73505 -115.55180 16346 ft 293 kts 31°
2026-05-06 17:04 35.75261 -115.53934 16026 ft 292 kts 29°
2026-05-06 17:05 35.76996 -115.52697 15697 ft 290 kts 29°
2026-05-06 17:05 35.78751 -115.51455 15346 ft 290 kts 29°
2026-05-06 17:05 35.80511 -115.50215 14990 ft 288 kts 29°
2026-05-06 17:05 35.82246 -115.48994 14647 ft 287 kts 29°
2026-05-06 17:06 35.83972 -115.47781 14314 ft 285 kts 28°
2026-05-06 17:06 35.85717 -115.46555 13973 ft 285 kts 28°
2026-05-06 17:06 35.87431 -115.45351 13645 ft 284 kts 28°
2026-05-06 17:06 35.89153 -115.44141 13339 ft 282 kts 28°
2026-05-06 17:07 35.90877 -115.42930 13033 ft 282 kts 28°
2026-05-06 17:07 35.92580 -115.41742 12732 ft 283 kts 28°
2026-05-06 17:07 35.94283 -115.40554 12379 ft 281 kts 28°
2026-05-06 17:07 35.95994 -115.39359 12057 ft 278 kts 28°
2026-05-06 17:08 35.97653 -115.38200 11751 ft 275 kts 28°
2026-05-06 17:08 35.99326 -115.37023 11431 ft 274 kts 31°
2026-05-06 17:08 36.00690 -115.35416 11140 ft 277 kts 55°
2026-05-06 17:08 36.01334 -115.33141 10837 ft 286 kts 82°
2026-05-06 17:09 36.01312 -115.30660 10500 ft 290 kts 89°
2026-05-06 17:09 36.01221 -115.28188 10128 ft 289 kts 89°
2026-05-06 17:09 36.01121 -115.25713 9771 ft 286 kts 88°
2026-05-06 17:09 36.01011 -115.23264 9539 ft 278 kts 89°
2026-05-06 17:10 36.00901 -115.20941 9459 ft 267 kts 89°
2026-05-06 17:10 36.00790 -115.18646 9419 ft 264 kts 89°
2026-05-06 17:10 36.00681 -115.16476 9332 ft 246 kts 89°
2026-05-06 17:10 36.00578 -115.14415 9341 ft 236 kts 88°
2026-05-06 17:11 36.00477 -115.12357 9334 ft 239 kts 88°
2026-05-06 17:11 36.00377 -115.10291 9121 ft 247 kts 88°
2026-05-06 17:11 36.00271 -115.08189 8865 ft 246 kts 89°
2026-05-06 17:11 36.00162 -115.06045 8456 ft 250 kts 90°
2026-05-06 17:12 36.00053 -115.03893 7995 ft 257 kts 90°
2026-05-06 17:12 35.99941 -115.01688 7781 ft 251 kts 89°
2026-05-06 17:12 35.99907 -114.99571 7556 ft 247 kts 86°
2026-05-06 17:12 35.99901 -114.97443 7200 ft 249 kts 87°
2026-05-06 17:13 35.99888 -114.95292 6942 ft 247 kts 87°
2026-05-06 17:13 36.00159 -114.93276 6780 ft 234 kts 61°
2026-05-06 17:13 36.01175 -114.91754 6483 ft 230 kts 34°
2026-05-06 17:13 36.02530 -114.90672 6019 ft 237 kts 22°
2026-05-06 17:14 36.04150 -114.90309 5580 ft 240 kts 352°
2026-05-06 17:14 36.05695 -114.91041 5363 ft 234 kts 326°
2026-05-06 17:14 36.06772 -114.92486 5205 ft 229 kts 300°
2026-05-06 17:14 36.07288 -114.94321 4921 ft 230 kts 275°
2026-05-06 17:15 36.07314 -114.96285 4585 ft 225 kts 272°
2026-05-06 17:15 36.07335 -114.98183 4325 ft 213 kts 271°
2026-05-06 17:15 36.07348 -114.99954 4039 ft 205 kts 271°
2026-05-06 17:15 36.07354 -115.01668 3767 ft 187 kts 271°
2026-05-06 17:16 36.07357 -115.03179 3543 ft 166 kts 271°
2026-05-06 17:16 36.07359 -115.04508 3366 ft 148 kts 271°
2026-05-06 17:16 36.07361 -115.05721 3145 ft 134 kts 270°
2026-05-06 17:16 36.07362 -115.06850 2965 ft 129 kts 270°
2026-05-06 17:17 36.07363 -115.07990 2815 ft 135 kts 270°
2026-05-06 17:17 36.07361 -115.09156 2635 ft 137 kts 270°
2026-05-06 17:17 36.07365 -115.10347 2458 ft 139 kts 270°
2026-05-06 17:17 36.07364 -115.11545 2266 ft 140 kts 270°
2026-05-06 17:18 36.07365 -115.12757 2089 ft 141 kts 270°
2026-05-06 17:18 36.07362 -115.13887 2094 ft 111 kts 270°
2026-05-06 17:18 36.07363 -115.14596 2116 ft 59 kts 270°
2026-05-06 17:18 36.07364 -115.14985 2130 ft 33 kts 270°
2026-05-06 17:19 36.07374 -115.15198 2137 ft 20 kts 277°
2026-05-06 17:19 36.07403 -115.15354 2143 ft 16 kts 291°
2026-05-06 17:19 36.07451 -115.15471 2147 ft 13 kts 299°
2026-05-06 17:19 36.07497 -115.15564 2150 ft 11 kts 310°
2026-05-06 17:20 36.07558 -115.15645 2152 ft 18 kts 313°
2026-05-06 17:20 36.07674 -115.15789 2155 ft 16 kts 319°
2026-05-06 17:20 36.07785 -115.15824 2154 ft 17 kts 359°
2026-05-06 17:20 36.07912 -115.15823 2152 ft 18 kts
2026-05-06 17:21 36.08049 -115.15823 2149 ft 20 kts
2026-05-06 17:21 36.08197 -115.15823 2145 ft 22 kts
2026-05-06 17:21 36.08339 -115.15806 2141 ft 10 kts 49°
2026-05-06 17:21 36.08399 -115.15734 2138 ft 13 kts 40°
2026-05-06 17:22 36.08443 -115.15684 2136 ft 8 kts 39°
2026-05-06 17:22 36.08499 -115.15653 2134 ft 9 kts 35°
2026-05-06 17:22 36.08503 -115.15583 2133 ft 9 kts 120°
2026-05-06 17:22 36.08464 -115.15511 2132 ft 10 kts 124°
2026-05-06 17:23 36.08457 -115.15458 2130 ft 6 kts 31°
2026-05-06 17:23 36.08474 -115.15449 2130 ft 0 kts 14°
2026-05-06 17:23 36.08479 -115.15448 2130 ft 0 kts 13°